Quillayute, WA

5:07 AM PDT on April 25, 2017 (GMT -0700)
Quillayute

Weather History for KUIL - October, 2011

Change the Weather History Date:

Wednesday, October 5, 2011

  Actual Average Record
Temperature  
Mean Temperature 53 °F 52 °F  
Max Temperature 60 °F 62 °F 79 °F (1991)
Min Temperature 46 °F 43 °F 32 °F (1972)
Degree Days  
Heating Degree Days 12 13  
Month to date heating degree days 61  
Since 1 July heating degree days 686  
Cooling Degree Days 0 0  
Month to date cooling degree days 0  
Year to date cooling degree days 19  
Growing Degree Days 3 (Base 50)    
Moisture  
Dew Point 48 °F    
Average Humidity 88    
Maximum Humidity 100    
Minimum Humidity 63    
Precipitation  
Precipitation 0.32 in 0.24 in 2.55 in (1975)
Month to date precipitation 1.14  
Year to date precipitation 61.68  
Sea Level Pressure  
Sea Level Pressure 29.58 in    
Wind  
Wind Speed 3 mph (SE)    
Max Wind Speed 10 mph    
Max Gust Speed 16 mph    
Visibility 9 miles    
Events Fog , Rain    
T = Trace of Precipitation, MM = Missing Value Source: NWS Daily Summary

Daily Weather History Graph

Daily Weather History Graph

Search for Another Location

Airport or City:

Trip Planner

Search our weather history database for the weather conditions in past years. The results will help you decide how hot, cold, wet, or windy it might be!

Date:

Astronomy

Oct. 05, 2011 Rise Set
Actual Time 7:22 AM PDT 6:49 PM PDT
Civil Twilight 6:51 AM PDT 7:20 PM PDT
Nautical Twilight 6:15 AM PDT 7:56 PM PDT
Astronomical Twilight 5:39 AM PDT 8:32 PM PDT
Moon 3:56 PM PDT (10/5) 12:49 AM PDT (10/5)
Length of Visible Light 12h 28m
Length of Day
11h 26m
Waxing Gibbous, 67% of the Moon is Illuminated
Oct 5
Waxing Gibbous
Oct 11
Full
Oct 19
Last Quarter
Oct 26
New
Nov 2
First Quarter

Hourly Weather History & Observations

Time (PDT) Temp. Dew Point Humidity Pressure Visibility Wind Dir Wind Speed Gust Speed Precip Events Conditions
12:53 AM 50.0 °F 48.0 °F 93% 29.39 in 10.0 mi ENE 3.5 mph - N/A   Overcast
1:36 AM 50.0 °F 48.2 °F 94% 29.39 in 10.0 mi West 4.6 mph - N/A   Overcast
1:53 AM 50.0 °F 48.0 °F 93% 29.40 in 7.0 mi Calm Calm - 0.00 in Rain Light Rain
2:53 AM 50.0 °F 48.0 °F 93% 29.41 in 9.0 mi SW 10.4 mph - 0.05 in Rain Light Rain
3:17 AM 48.2 °F 48.2 °F 100% 29.41 in 8.0 mi Calm Calm - 0.07 in Rain Light Rain
3:53 AM 48.9 °F 48.0 °F 97% 29.41 in 10.0 mi Calm Calm - 0.07 in Rain Light Rain
4:53 AM 48.9 °F 48.0 °F 97% 29.42 in 8.0 mi East 5.8 mph - 0.10 in Rain Light Rain
5:00 AM - - N/A% - - North - - N/A   Unknown
5:53 AM 48.9 °F 48.0 °F 97% 29.43 in 10.0 mi East 5.8 mph - 0.07 in Rain Light Rain
6:53 AM 48.9 °F 46.9 °F 93% 29.44 in 10.0 mi East 4.6 mph - 0.02 in Rain Light Rain
7:53 AM 48.0 °F 46.9 °F 96% 29.44 in 10.0 mi East 4.6 mph - 0.01 in   Mostly Cloudy
8:53 AM 50.0 °F 48.0 °F 93% 29.46 in 10.0 mi ESE 3.5 mph - N/A   Partly Cloudy
9:53 AM 53.1 °F 48.9 °F 86% 29.48 in 10.0 mi ESE 4.6 mph - N/A   Clear
10:53 AM 53.1 °F 48.9 °F 86% 29.50 in 10.0 mi ESE 5.8 mph - N/A   Clear
11:53 AM 55.9 °F 50.0 °F 80% 29.51 in 10.0 mi SSE 9.2 mph - N/A   Partly Cloudy
12:46 PM 55.4 °F 50.0 °F 82% 29.52 in 10.0 mi SE 9.2 mph - N/A   Mostly Cloudy
12:53 PM 55.9 °F 50.0 °F 80% 29.53 in 10.0 mi Variable 4.6 mph - N/A   Mostly Cloudy
1:00 PM 55.4 °F 48.2 °F 77% 29.53 in 10.0 mi SE 5.8 mph - N/A   Mostly Cloudy
1:32 PM 57.2 °F 50.0 °F 77% 29.53 in 10.0 mi SSW 5.8 mph - N/A   Overcast
1:53 PM 59.0 °F 48.9 °F 69% 29.54 in 10.0 mi SSW 8.1 mph 16.1 mph N/A   Overcast
2:13 PM 57.2 °F 51.8 °F 82% 29.55 in 10.0 mi South 8.1 mph - N/A   Overcast
2:53 PM 57.0 °F 48.9 °F 74% 29.55 in 10.0 mi SSE 3.5 mph - N/A   Overcast
3:03 PM 60.8 °F 48.2 °F 63% 29.56 in 10.0 mi South 8.1 mph - N/A   Overcast
3:29 PM 57.2 °F 46.4 °F 67% 29.57 in 10.0 mi SSW 5.8 mph - N/A   Overcast
3:53 PM 55.9 °F 48.0 °F 75% 29.57 in 10.0 mi South 3.5 mph - N/A   Scattered Clouds
4:53 PM 57.9 °F 48.9 °F 72% 29.60 in 10.0 mi Calm Calm - N/A   Mostly Cloudy
5:53 PM 55.9 °F 48.0 °F 75% 29.62 in 10.0 mi ENE 3.5 mph - N/A   Overcast
6:11 PM 53.6 °F 48.2 °F 82% 29.63 in 10.0 mi NE 5.8 mph - N/A   Overcast
6:39 PM 53.6 °F 50.0 °F 88% 29.65 in 10.0 mi North 3.5 mph - 0.00 in   Overcast
6:53 PM 52.0 °F 50.0 °F 93% 29.66 in 10.0 mi North 3.5 mph - 0.00 in   Overcast
7:06 PM 51.8 °F 50.0 °F 94% 29.66 in 10.0 mi Calm Calm - N/A   Overcast
7:53 PM 52.0 °F 50.0 °F 93% 29.68 in 10.0 mi Calm Calm - N/A   Overcast
8:53 PM 50.0 °F 48.9 °F 96% 29.70 in 10.0 mi Calm Calm - N/A   Partly Cloudy
9:53 PM 50.0 °F 48.0 °F 93% 29.73 in 10.0 mi Calm Calm - N/A   Overcast
10:00 PM - - N/A% - - North - - N/A   Unknown
10:53 PM 48.0 °F 46.9 °F 96% 29.75 in 7.0 mi Calm Calm - N/A   Partly Cloudy
11:14 PM 46.4 °F 44.6 °F 93% 29.76 in 9.0 mi Calm Calm - N/A   Mostly Cloudy
11:23 PM 46.4 °F 46.4 °F 100% 29.76 in 10.0 mi Calm Calm - N/A   Mostly Cloudy
11:35 PM 46.4 °F 46.4 °F 100% 29.76 in 2.5 mi Calm Calm - N/A   Overcast
11:37 PM 46.4 °F 46.4 °F 100% 29.76 in 1.2 mi Calm Calm - N/A   Overcast
11:45 PM 46.4 °F 46.4 °F 100% 29.77 in 0.5 mi Calm Calm - N/A Fog Fog
11:47 PM 46.4 °F 46.4 °F 100% 29.77 in 0.2 mi Calm Calm - N/A Fog Fog
11:53 PM 46.9 °F 46.0 °F 97% 29.78 in 0.2 mi Calm Calm - N/A Fog Fog